This is the latest recevied weather packets stored in our database for station/object KT2UU-13. If no packets are shown the sender has not sent any weather packets the latest 10 day(s).
| Time | Temp. | Humidity | Pressure | Rain* | Wind** | Luminosity | Snow |
|---|---|---|---|---|---|---|---|
| 1777946839 | 17.22° C | 60% | 1015.3 hPa | 0 mm | - | - | - |
| 1777946534 | 17.22° C | 62% | 1015.4 hPa | 0 mm | - | - | - |
| 1777946232 | 17.22° C | 61% | 1015.2 hPa | 0 mm | - | - | - |
| 1777945929 | 17.22° C | 61% | 1015.3 hPa | 0 mm | - | - | - |
| 1777945626 | 17.22° C | 61% | 1015.1 hPa | 0 mm | - | - | - |
| 1777945323 | 17.22° C | 61% | 1015.1 hPa | 0 mm | - | - | - |
| 1777945019 | 17.22° C | 61% | 1015.2 hPa | 0 mm | - | - | - |
| 1777944717 | 17.78° C | 61% | 1015.1 hPa | 0 mm | - | - | - |
| 1777944415 | 17.78° C | 62% | 1015.1 hPa | 0 mm | - | - | - |
| 1777944107 | 17.78° C | 62% | 1015.3 hPa | 0 mm | - | - | - |
| 1777943802 | 17.78° C | 62% | 1014.9 hPa | 0 mm | - | - | - |
| 1777943500 | 18.33° C | 62% | 1014.8 hPa | 0 mm | - | - | - |
| 1777943200 | 18.33° C | 62% | 1014.9 hPa | 0 mm | - | - | - |
| 1777942897 | 18.33° C | 60% | 1015 hPa | 0 mm | - | - | - |
| 1777942592 | 18.89° C | 59% | 1014.9 hPa | 0 mm | - | - | - |
| 1777942290 | 18.89° C | 59% | 1015.1 hPa | 0 mm | - | - | - |
| 1777941987 | 19.44° C | 58% | 1015 hPa | 0 mm | - | - | - |
| 1777941683 | 20° C | 58% | 1015.1 hPa | 0 mm | - | - | - |
| 1777941381 | 20.56° C | 57% | 1014.9 hPa | 0 mm | - | - | - |
| 1777941078 | 20.56° C | 54% | 1014.9 hPa | 0 mm | - | - | - |
| 1777940774 | 21.11° C | 52% | 1015 hPa | 0 mm | - | - | - |
| 1777940473 | 21.67° C | 50% | 1014.8 hPa | 0 mm | - | - | - |
| 1777940169 | 22.22° C | 49% | 1014.8 hPa | 0 mm | - | - | - |
| 1777939867 | 22.22° C | 47% | 1014.9 hPa | 0 mm | - | - | - |
| 1777939564 | 22.78° C | 46% | 1014.8 hPa | 0 mm | - | - | - |
* Rain latest hour (hover to see other rain measurements)
** Current wind speed in m/s (hover to see current wind gust speed)